Flag for Australia Weather past 2 weeks in Mount Isa, Queensland, Australia

Now
57 °F

Clear.


Feels Like: 54 °F
Forecast: 54 / 70 °F
Wind: 15 mph from South

Location: Mount Isa Amo

Current Time: Aug 4, 2015 at 1:48:29 AM

Latest Report: Aug 4, 2015 at 1:30 AM


Visibility: N/A

Pressure: 30.18 "Hg

Humidity: 29%

Dew point: 25 °F

Location of Mount IsaLocation

Historic Weather in Mount Isa — Graph

°F

Mount Isa temperature yesterday

Maximum temperature yesterday: 79 °F (at 3:00 PM)
Minimum temperature yesterday: 59 °F (at 6:30 AM)
Average temperature yesterday: 68 °F

Past Weeks' High & Low Weather Summary

 TemperatureHumidityPressure
High91 °F (Jul 24, 2:30 PM)82% (Aug 2, 6:30 AM)30.33 "Hg (Aug 2, 6:30 AM)
Low41 °F (Jul 21, 6:30 AM)14% (Jul 28, 11:00 PM)29.98 "Hg (Jul 24, 3:00 PM)
Average67 °F34%30.14 "Hg
* Reported Jul 20 1:00 AM — Aug 4 1:00 AM, Mount Isa, Weather by CustomWeather, © 2015

Note: Actual official high and low records may vary slightly from our data, if they occured in-between our weather recording intervals... More about our weather records

Advertising

Mount Isa weather history for previous 24 hours

 ConditionsComfort  
Time TempWeatherWind HumidityBarometerVisibility
1:00 AM
Tue, Aug 4
59 °FClear.15 mph29%30.18 "HgN/A
12:30 AM61 °FClear.20 mph27%30.18 "HgN/A
12:00 AM61 °FClear.15 mph27%30.18 "HgN/A
11:30 PM
Mon, Aug 3
63 °FClear.16 mph25%30.18 "HgN/A
11:00 PM63 °FClear.15 mph27%30.18 "HgN/A
10:30 PM64 °FClear.16 mph28%30.18 "HgN/A
10:00 PM64 °FClear.13 mph30%30.18 "HgN/A
9:30 PM64 °FClear.12 mph32%30.18 "HgN/A
9:00 PM66 °FClear.15 mph28%30.18 "HgN/A
8:30 PM66 °FClear.16 mph28%30.18 "HgN/A
8:00 PM68 °FClear.13 mph28%30.15 "HgN/A
7:30 PM68 °FClear.17 mph28%30.15 "HgN/A
7:00 PM70 °FClear.16 mph29%30.15 "HgN/A
6:30 PM72 °FClear.18 mph27%30.12 "HgN/A
6:00 PM72 °FClear.16 mph27%30.12 "HgN/A
5:30 PM73 °FClear.18 mph27%30.12 "HgN/A
5:00 PM75 °FSunny.20 mph25%30.12 "HgN/A
4:30 PM75 °FSunny.17 mph25%30.09 "HgN/A
4:00 PM75 °FSunny.20 mph25%30.09 "HgN/A
3:30 PM77 °FSunny.18 mph24%30.09 "HgN/A
3:00 PM79 °FSunny.17 mph24%30.12 "HgN/A
2:00 PM75 °FSunny.21 mph27%30.12 "HgN/A
1:30 PM73 °FSunny.20 mph27%30.15 "HgN/A
1:00 PM73 °FSunny.17 mph29%30.15 "HgN/A
12:30 PM72 °FSunny.18 mph31%30.18 "HgN/A
12:00 PM72 °FSunny.17 mph31%30.18 "HgN/A
11:30 AM70 °FSunny.17 mph33%30.18 "HgN/A
11:00 AM70 °FSunny.20 mph35%30.21 "HgN/A
10:30 AM68 °FSunny.18 mph38%30.21 "HgN/A
10:00 AM64 °FSunny.18 mph43%30.18 "HgN/A
9:30 AM63 °FSunny.16 mph45%30.18 "HgN/A
9:00 AM63 °FSunny.18 mph49%30.18 "HgN/A
8:30 AM61 °FSunny.16 mph52%30.18 "HgN/A
8:00 AM59 °FSunny.12 mph55%30.18 "HgN/A
7:30 AM59 °FSunny.13 mph51%30.15 "HgN/A
6:30 AM59 °FSunny.14 mph51%30.15 "HgN/A
6:00 AM61 °FClear.16 mph52%30.15 "HgN/A
5:30 AM61 °FClear.15 mph52%30.12 "HgN/A
5:00 AM63 °FClear.13 mph49%30.12 "HgN/A
4:30 AM63 °FClear.15 mph49%30.12 "HgN/A
4:00 AM63 °FClear.13 mph49%30.12 "HgN/A
3:30 AM64 °FClear.14 mph46%30.12 "HgN/A
3:00 AM66 °FClear.16 mph43%30.12 "HgN/A
2:30 AM68 °FClear.20 mph40%30.12 "HgN/A
2:00 AM68 °FClear.13 mph38%30.12 "HgN/A
1:30 AM70 °FClear.7 mph33%30.12 "HgN/A
1:00 AM70 °FClear.14 mph31%30.12 "HgN/A
Weather by CustomWeather, © 2015

See weather overviewHow to use our weather pages